contact:dominique.lefevre@mio.osupytheas.fr, maurice.libes@osupytheas.fr, didier.mallarino@osupytheas.fr
Project:EMSO http://www.emso-fr.org/EMSO-France
Depth: 2436.0 m
Title:EMSO Ligure Ouest : Data MII capteur CSTAR
DateTime,Latitude,Longitude,Instrument_Serial,Reference_Counts,Signal_Counts,Corrected_Signal_raw_counts,Calculated_Beam_c_inverse_meters,Internal_thermistor_counts
DateTime,Latitude,Longitude,Instrument_Serial,Reference_Counts,Signal_Counts,Corrected_Signal_raw_counts,Calculated_Beam_c_inverse_meters,Internal_thermistor_counts
2019-07-03T00:02:04,42.805,6.029,CST-1368DR,8815,12333,15495,0.031,551
2019-07-03T00:05:06,42.805,6.029,CST-1368DR,8815,12332,15495,0.031,551
2019-07-03T00:08:07,42.805,6.029,CST-1368DR,8815,12332,15494,0.031,550
2019-07-03T00:11:08,42.805,6.029,CST-1368DR,8815,12333,15495,0.031,551
2019-07-03T00:14:10,42.805,6.029,CST-1368DR,8815,12332,15494,0.031,551
2019-07-03T00:17:11,42.805,6.029,CST-1368DR,8815,12332,15494,0.031,551
2019-07-03T00:20:13,42.805,6.029,CST-1368DR,8815,12332,15495,0.031,551
2019-07-03T00:23:14,42.805,6.029,CST-1368DR,8815,12333,15495,0.031,551
2019-07-03T00:26:15,42.805,6.029,CST-1368DR,8815,12333,15495,0.031,551
2019-07-03T00:29:17,42.805,6.029,CST-1368DR,8815,12331,15493,0.032,551
2019-07-03T00:32:18,42.805,6.029,CST-1368DR,8815,12332,15495,0.031,551
2019-07-03T00:35:20,42.805,6.029,CST-1368DR,8815,12333,15495,0.031,551
2019-07-03T00:38:21,42.805,6.029,CST-1368DR,8815,12332,15495,0.031,550
2019-07-03T00:41:23,42.805,6.029,CST-1368DR,8815,12333,15495,0.031,551
2019-07-03T00:44:24,42.805,6.029,CST-1368DR,8814,12333,15496,0.031,551
2019-07-03T00:47:25,42.805,6.029,CST-1368DR,8814,12332,15496,0.031,551
2019-07-03T00:50:27,42.805,6.029,CST-1368DR,8815,12333,15495,0.031,551
2019-07-03T00:53:28,42.805,6.029,CST-1368DR,8815,12333,15495,0.031,551
2019-07-03T00:56:30,42.805,6.029,CST-1368DR,8814,12331,15494,0.031,551
2019-07-03T00:59:31,42.805,6.029,CST-1368DR,8814,12332,15496,0.031,551
2019-07-03T01:02:32,42.805,6.029,CST-1368DR,8814,12333,15497,0.031,551
2019-07-03T01:05:34,42.805,6.029,CST-1368DR,8814,12331,15494,0.031,551
2019-07-03T01:08:35,42.805,6.029,CST-1368DR,8814,12333,15496,0.031,551
2019-07-03T01:11:37,42.805,6.029,CST-1368DR,8814,12333,15497,0.031,551
2019-07-03T01:14:38,42.805,6.029,CST-1368DR,8814,12331,15495,0.031,551
2019-07-03T01:17:39,42.805,6.029,CST-1368DR,8814,12333,15496,0.031,551
2019-07-03T01:20:41,42.805,6.029,CST-1368DR,8814,12332,15496,0.031,551
2019-07-03T01:23:42,42.805,6.029,CST-1368DR,8814,12331,15495,0.031,551
2019-07-03T01:26:44,42.805,6.029,CST-1368DR,8814,12332,15496,0.031,551
2019-07-03T01:29:45,42.805,6.029,CST-1368DR,8814,12329,15492,0.032,551
2019-07-03T01:32:46,42.805,6.029,CST-1368DR,8814,12331,15495,0.031,551
2019-07-03T01:35:48,42.805,6.029,CST-1368DR,8814,12332,15496,0.031,550
2019-07-03T01:38:49,42.805,6.029,CST-1368DR,8814,12329,15492,0.032,550
2019-07-03T01:41:51,42.805,6.029,CST-1368DR,8814,12330,15493,0.032,551
2019-07-03T01:44:52,42.805,6.029,CST-1368DR,8814,12332,15495,0.031,550
2019-07-03T01:47:54,42.805,6.029,CST-1368DR,8814,12332,15496,0.031,551
2019-07-03T01:50:55,42.805,6.029,CST-1368DR,8814,12331,15495,0.031,551
2019-07-03T01:53:56,42.805,6.029,CST-1368DR,8814,12329,15492,0.032,551
2019-07-03T01:56:58,42.805,6.029,CST-1368DR,8814,12331,15494,0.031,551
2019-07-03T01:59:59,42.805,6.029,CST-1368DR,8814,12331,15494,0.031,551
2019-07-03T02:03:01,42.805,6.029,CST-1368DR,8814,12330,15494,0.031,551
2019-07-03T02:06:02,42.805,6.029,CST-1368DR,8814,12330,15493,0.032,551
2019-07-03T02:09:03,42.805,6.029,CST-1368DR,8814,12320,15480,0.035,551
2019-07-03T02:12:05,42.805,6.029,CST-1368DR,8814,12331,15495,0.031,551
2019-07-03T02:15:06,42.805,6.029,CST-1368DR,8814,12330,15494,0.031,551
2019-07-03T02:18:08,42.805,6.029,CST-1368DR,8814,12332,15495,0.031,551
2019-07-03T02:21:09,42.805,6.029,CST-1368DR,8814,12331,15495,0.031,551
2019-07-03T02:24:10,42.805,6.029,CST-1368DR,8814,12331,15495,0.031,551
2019-07-03T02:27:12,42.805,6.029,CST-1368DR,8813,12330,15495,0.031,551
2019-07-03T02:30:13,42.805,6.029,CST-1368DR,8814,12330,15494,0.031,551
2019-07-03T02:33:15,42.805,6.029,CST-1368DR,8813,12330,15495,0.031,551
2019-07-03T02:36:16,42.805,6.029,CST-1368DR,8813,12331,15496,0.031,551
2019-07-03T02:39:17,42.805,6.029,CST-1368DR,8813,12330,15495,0.031,550
2019-07-03T02:42:19,42.805,6.029,CST-1368DR,8814,12331,15495,0.031,551
2019-07-03T02:45:20,42.805,6.029,CST-1368DR,8813,12330,15494,0.031,551
2019-07-03T02:48:22,42.805,6.029,CST-1368DR,8813,12331,15496,0.031,551
2019-07-03T02:51:23,42.805,6.029,CST-1368DR,8813,12330,15495,0.031,551
2019-07-03T02:54:25,42.805,6.029,CST-1368DR,8813,12331,15496,0.031,551
2019-07-03T02:57:26,42.805,6.029,CST-1368DR,8813,12331,15496,0.031,551
2019-07-03T03:00:27,42.805,6.029,CST-1368DR,8813,12331,15496,0.031,551
2019-07-03T03:03:29,42.805,6.029,CST-1368DR,8813,12322,15485,0.034,551
2019-07-03T03:06:30,42.805,6.029,CST-1368DR,8813,12331,15496,0.031,551
2019-07-03T03:09:32,42.805,6.029,CST-1368DR,8813,12330,15495,0.031,551
2019-07-03T03:12:33,42.805,6.029,CST-1368DR,8813,12329,15494,0.031,550
2019-07-03T03:15:34,42.805,6.029,CST-1368DR,8813,12330,15495,0.031,551
2019-07-03T03:18:36,42.805,6.029,CST-1368DR,8813,12330,15495,0.031,551
2019-07-03T03:21:37,42.805,6.029,CST-1368DR,8813,12330,15495,0.031,550
2019-07-03T03:24:39,42.805,6.029,CST-1368DR,8813,12329,15493,0.032,551
2019-07-03T03:27:40,42.805,6.029,CST-1368DR,8813,12330,15494,0.031,551
2019-07-03T03:30:41,42.805,6.029,CST-1368DR,8813,12330,15495,0.031,551
2019-07-03T03:33:43,42.805,6.029,CST-1368DR,8813,12331,15496,0.031,551
2019-07-03T03:36:44,42.805,6.029,CST-1368DR,8813,12329,15494,0.031,551
2019-07-03T03:39:46,42.805,6.029,CST-1368DR,8813,12328,15492,0.032,551
2019-07-03T03:42:47,42.805,6.029,CST-1368DR,8813,12330,15495,0.031,551
2019-07-03T03:45:49,42.805,6.029,CST-1368DR,8813,12330,15495,0.031,551
2019-07-03T03:48:50,42.805,6.029,CST-1368DR,8813,12330,15494,0.031,551
2019-07-03T03:51:51,42.805,6.029,CST-1368DR,8813,12330,15495,0.031,551
2019-07-03T03:54:53,42.805,6.029,CST-1368DR,8813,12330,15494,0.031,551
2019-07-03T03:57:54,42.805,6.029,CST-1368DR,8813,12330,15494,0.031,551
2019-07-03T04:00:56,42.805,6.029,CST-1368DR,8812,12327,15493,0.032,550
2019-07-03T04:03:57,42.805,6.029,CST-1368DR,8813,12330,15495,0.031,551
2019-07-03T04:06:58,42.805,6.029,CST-1368DR,8812,12330,15496,0.031,550
2019-07-03T04:10:00,42.805,6.029,CST-1368DR,8812,12330,15496,0.031,551
2019-07-03T04:13:01,42.805,6.029,CST-1368DR,8812,12329,15495,0.031,551
2019-07-03T04:16:03,42.805,6.029,CST-1368DR,8812,12329,15495,0.031,551
2019-07-03T04:19:04,42.805,6.029,CST-1368DR,8812,12329,15495,0.031,551
2019-07-03T04:22:05,42.805,6.029,CST-1368DR,8812,12330,15496,0.031,550
2019-07-03T04:25:07,42.805,6.029,CST-1368DR,8812,12325,15491,0.032,551
2019-07-03T04:28:08,42.805,6.029,CST-1368DR,8812,12329,15495,0.031,550
2019-07-03T04:31:10,42.805,6.029,CST-1368DR,8812,12329,15496,0.031,551
2019-07-03T04:34:11,42.805,6.029,CST-1368DR,8812,12329,15496,0.031,551
2019-07-03T04:37:12,42.805,6.029,CST-1368DR,8812,12329,15496,0.031,551
2019-07-03T04:40:14,42.805,6.029,CST-1368DR,8812,12329,15496,0.031,551
2019-07-03T04:43:15,42.805,6.029,CST-1368DR,8812,12328,15494,0.031,551
2019-07-03T04:46:17,42.805,6.029,CST-1368DR,8812,12330,15496,0.031,551
2019-07-03T04:49:18,42.805,6.029,CST-1368DR,8812,12330,15496,0.031,551
2019-07-03T04:52:20,42.805,6.029,CST-1368DR,8812,12327,15493,0.032,551
2019-07-03T04:55:21,42.805,6.029,CST-1368DR,8812,12329,15495,0.031,550
2019-07-03T04:58:22,42.805,6.029,CST-1368DR,8812,12329,15495,0.031,551
2019-07-03T05:01:24,42.805,6.029,CST-1368DR,8812,12329,15495,0.031,551
2019-07-03T05:04:25,42.805,6.029,CST-1368DR,8812,12329,15495,0.031,551
2019-07-03T05:07:27,42.805,6.029,CST-1368DR,8812,12329,15495,0.031,551
2019-07-03T05:10:28,42.805,6.029,CST-1368DR,8812,12329,15495,0.031,551
2019-07-03T05:13:29,42.805,6.029,CST-1368DR,8812,12329,15495,0.031,551
2019-07-03T05:16:31,42.805,6.029,CST-1368DR,8812,12329,15495,0.031,551
2019-07-03T05:19:32,42.805,6.029,CST-1368DR,8812,12327,15492,0.032,551
2019-07-03T05:22:34,42.805,6.029,CST-1368DR,8812,12329,15495,0.031,551
2019-07-03T05:25:35,42.805,6.029,CST-1368DR,8812,12329,15496,0.031,551
2019-07-03T05:28:36,42.805,6.029,CST-1368DR,8812,12329,15495,0.031,550
2019-07-03T05:31:38,42.805,6.029,CST-1368DR,8812,12327,15493,0.032,551
2019-07-03T05:34:39,42.805,6.029,CST-1368DR,8811,12327,15495,0.031,551
2019-07-03T05:37:41,42.805,6.029,CST-1368DR,8811,12327,15494,0.031,551
2019-07-03T05:40:42,42.805,6.029,CST-1368DR,8812,12328,15494,0.031,551
2019-07-03T05:43:43,42.805,6.029,CST-1368DR,8812,12326,15492,0.032,551
2019-07-03T05:46:45,42.805,6.029,CST-1368DR,8812,12327,15492,0.032,551
2019-07-03T05:49:46,42.805,6.029,CST-1368DR,8812,12326,15492,0.032,550
2019-07-03T05:52:48,42.805,6.029,CST-1368DR,8812,12328,15494,0.031,550
2019-07-03T05:55:49,42.805,6.029,CST-1368DR,8811,12328,15496,0.031,551
2019-07-03T05:58:51,42.805,6.029,CST-1368DR,8812,12329,15495,0.031,550
2019-07-03T06:01:52,42.805,6.029,CST-1368DR,8811,12321,15487,0.033,551
2019-07-03T06:04:53,42.805,6.029,CST-1368DR,8812,12327,15492,0.032,551
2019-07-03T06:07:55,42.805,6.029,CST-1368DR,8811,12327,15494,0.031,551
2019-07-03T06:10:56,42.805,6.029,CST-1368DR,8811,12328,15495,0.031,551
2019-07-03T06:13:58,42.805,6.029,CST-1368DR,8811,12327,15495,0.031,551
2019-07-03T06:16:59,42.805,6.029,CST-1368DR,8811,12328,15495,0.031,551
2019-07-03T06:20:00,42.805,6.029,CST-1368DR,8811,12328,15496,0.031,551
2019-07-03T06:23:02,42.805,6.029,CST-1368DR,8811,12327,15495,0.031,551
2019-07-03T06:26:03,42.805,6.029,CST-1368DR,8811,12326,15493,0.032,551
2019-07-03T06:29:05,42.805,6.029,CST-1368DR,8811,12327,15494,0.031,551
2019-07-03T06:32:06,42.805,6.029,CST-1368DR,8811,12327,15494,0.031,551
2019-07-03T06:35:07,42.805,6.029,CST-1368DR,8811,12327,15494,0.031,551
2019-07-03T06:38:09,42.805,6.029,CST-1368DR,8811,12326,15493,0.032,551
2019-07-03T06:41:10,42.805,6.029,CST-1368DR,8811,12327,15494,0.031,551
2019-07-03T06:44:12,42.805,6.029,CST-1368DR,8811,12326,15493,0.032,551
2019-07-03T06:47:13,42.805,6.029,CST-1368DR,8811,12328,15495,0.031,551
2019-07-03T06:50:14,42.805,6.029,CST-1368DR,8811,12327,15494,0.031,551
2019-07-03T06:53:16,42.805,6.029,CST-1368DR,8811,12324,15490,0.032,551
2019-07-03T06:56:17,42.805,6.029,CST-1368DR,8811,12327,15494,0.031,551
2019-07-03T06:59:19,42.805,6.029,CST-1368DR,8811,12328,15495,0.031,551
2019-07-03T07:02:20,42.805,6.029,CST-1368DR,8811,12327,15494,0.031,551
2019-07-03T07:05:22,42.805,6.029,CST-1368DR,8811,12328,15495,0.031,551
2019-07-03T07:08:23,42.805,6.029,CST-1368DR,8811,12327,15494,0.031,551
2019-07-03T07:11:24,42.805,6.029,CST-1368DR,8811,12327,15495,0.031,551
2019-07-03T07:14:26,42.805,6.029,CST-1368DR,8811,12327,15494,0.031,550
2019-07-03T07:17:27,42.805,6.029,CST-1368DR,8811,12326,15493,0.032,551
2019-07-03T07:20:29,42.805,6.029,CST-1368DR,8811,12327,15495,0.031,551
2019-07-03T07:23:30,42.805,6.029,CST-1368DR,8811,12328,15495,0.031,551
2019-07-03T07:26:31,42.805,6.029,CST-1368DR,8811,12327,15495,0.031,551
2019-07-03T07:29:33,42.805,6.029,CST-1368DR,8811,12328,15495,0.031,550
2019-07-03T07:32:34,42.805,6.029,CST-1368DR,8811,12326,15493,0.032,551
2019-07-03T07:35:36,42.805,6.029,CST-1368DR,8811,12327,15494,0.031,551
2019-07-03T07:38:37,42.805,6.029,CST-1368DR,8811,12327,15494,0.031,550
2019-07-03T07:41:38,42.805,6.029,CST-1368DR,8811,12326,15493,0.032,551
2019-07-03T07:44:40,42.805,6.029,CST-1368DR,8811,12327,15494,0.031,551
2019-07-03T07:47:41,42.805,6.029,CST-1368DR,8811,12327,15494,0.031,550
2019-07-03T07:50:43,42.805,6.029,CST-1368DR,8811,12326,15493,0.032,551
2019-07-03T07:53:44,42.805,6.029,CST-1368DR,8811,12325,15492,0.032,551
2019-07-03T07:56:46,42.805,6.029,CST-1368DR,8810,12324,15492,0.032,551
2019-07-03T07:59:47,42.805,6.029,CST-1368DR,8810,12326,15495,0.031,551
2019-07-03T08:02:48,42.805,6.029,CST-1368DR,8810,12326,15494,0.031,551
2019-07-03T08:05:50,42.805,6.029,CST-1368DR,8810,12327,15495,0.031,551
2019-07-03T08:08:51,42.805,6.029,CST-1368DR,8810,12327,15495,0.031,551
2019-07-03T08:11:53,42.805,6.029,CST-1368DR,8810,12325,15494,0.031,551
2019-07-03T08:14:54,42.805,6.029,CST-1368DR,8810,12327,15496,0.031,551
2019-07-03T08:17:55,42.805,6.029,CST-1368DR,8810,12326,15495,0.031,551
2019-07-03T08:20:57,42.805,6.029,CST-1368DR,8810,12326,15495,0.031,551
2019-07-03T08:23:58,42.805,6.029,CST-1368DR,8810,12327,15496,0.031,551
2019-07-03T08:27:00,42.805,6.029,CST-1368DR,8810,12324,15493,0.032,551
2019-07-03T08:30:01,42.805,6.029,CST-1368DR,8810,12325,15493,0.032,551
2019-07-03T08:33:02,42.805,6.029,CST-1368DR,8810,12326,15495,0.031,551
2019-07-03T08:36:04,42.805,6.029,CST-1368DR,8810,12327,15496,0.031,551
2019-07-03T08:39:05,42.805,6.029,CST-1368DR,8810,12327,15496,0.031,551
2019-07-03T08:42:07,42.805,6.029,CST-1368DR,8810,12322,15490,0.032,551
2019-07-03T08:45:08,42.805,6.029,CST-1368DR,8810,12327,15496,0.031,551
2019-07-03T08:48:09,42.805,6.029,CST-1368DR,8810,12327,15496,0.031,551
2019-07-03T08:51:11,42.805,6.029,CST-1368DR,8810,12324,15493,0.032,551
2019-07-03T08:54:12,42.805,6.029,CST-1368DR,8810,12327,15496,0.031,551
2019-07-03T08:57:14,42.805,6.029,CST-1368DR,8810,12326,15495,0.031,551
2019-07-03T09:00:15,42.805,6.029,CST-1368DR,8810,12327,15496,0.031,551
2019-07-03T09:03:17,42.805,6.029,CST-1368DR,8810,12326,15495,0.031,551
2019-07-03T09:06:18,42.805,6.029,CST-1368DR,8810,12321,15489,0.033,551
2019-07-03T09:09:19,42.805,6.029,CST-1368DR,8810,12326,15495,0.031,551
2019-07-03T09:12:21,42.805,6.029,CST-1368DR,8810,12326,15495,0.031,551
2019-07-03T09:15:22,42.805,6.029,CST-1368DR,8810,12326,15494,0.031,551
2019-07-03T09:18:24,42.805,6.029,CST-1368DR,8810,12327,15495,0.031,551
2019-07-03T09:21:25,42.805,6.029,CST-1368DR,8810,12327,15495,0.031,551
2019-07-03T09:24:26,42.805,6.029,CST-1368DR,8810,12327,15495,0.031,551
2019-07-03T09:27:28,42.805,6.029,CST-1368DR,8810,12327,15495,0.031,551
2019-07-03T09:30:29,42.805,6.029,CST-1368DR,8810,12327,15496,0.031,551
2019-07-03T09:33:31,42.805,6.029,CST-1368DR,8810,12326,15494,0.031,551
2019-07-03T09:36:32,42.805,6.029,CST-1368DR,8810,12324,15493,0.032,551
2019-07-03T09:39:33,42.805,6.029,CST-1368DR,8810,12327,15496,0.031,551
2019-07-03T09:42:35,42.805,6.029,CST-1368DR,8810,12326,15495,0.031,551
2019-07-03T09:45:36,42.805,6.029,CST-1368DR,8810,12327,15495,0.031,551
2019-07-03T09:48:38,42.805,6.029,CST-1368DR,8809,12326,15497,0.031,551
2019-07-03T09:51:39,42.805,6.029,CST-1368DR,8810,12325,15494,0.031,551
2019-07-03T09:54:41,42.805,6.029,CST-1368DR,8809,12326,15497,0.031,551
2019-07-03T09:57:42,42.805,6.029,CST-1368DR,8809,12326,15496,0.031,551
2019-07-03T10:00:43,42.805,6.029,CST-1368DR,8809,12327,15497,0.031,551
2019-07-03T10:03:45,42.805,6.029,CST-1368DR,8809,12326,15496,0.031,551
2019-07-03T10:06:46,42.805,6.029,CST-1368DR,8809,12327,15497,0.031,551
2019-07-03T10:09:48,42.805,6.029,CST-1368DR,8809,12326,15496,0.031,551
2019-07-03T10:12:49,42.805,6.029,CST-1368DR,8809,12324,15494,0.031,551
2019-07-03T10:15:50,42.805,6.029,CST-1368DR,8809,12326,15496,0.031,551
2019-07-03T10:18:52,42.805,6.029,CST-1368DR,8809,12324,15494,0.031,550
2019-07-03T10:21:53,42.805,6.029,CST-1368DR,8809,12326,15496,0.031,551
2019-07-03T10:24:55,42.805,6.029,CST-1368DR,8809,12324,15494,0.031,551
2019-07-03T10:27:56,42.805,6.029,CST-1368DR,8809,12326,15496,0.031,551
2019-07-03T10:30:57,42.805,6.029,CST-1368DR,8809,12326,15496,0.031,551
2019-07-03T10:33:59,42.805,6.029,CST-1368DR,8809,12326,15496,0.031,551
2019-07-03T10:37:00,42.805,6.029,CST-1368DR,8809,12326,15496,0.031,551
2019-07-03T10:40:02,42.805,6.029,CST-1368DR,8809,12325,15495,0.031,551
2019-07-03T10:43:03,42.805,6.029,CST-1368DR,8809,12325,15495,0.031,551
2019-07-03T10:46:04,42.805,6.029,CST-1368DR,8809,12324,15494,0.031,551
2019-07-03T10:49:06,42.805,6.029,CST-1368DR,8809,12324,15494,0.031,550
2019-07-03T10:52:07,42.805,6.029,CST-1368DR,8809,12324,15494,0.031,551
2019-07-03T10:55:09,42.805,6.029,CST-1368DR,8809,12325,15495,0.031,551
2019-07-03T10:58:10,42.805,6.029,CST-1368DR,8809,12325,15495,0.031,550
2019-07-03T11:01:12,42.805,6.029,CST-1368DR,8809,12325,15495,0.031,551
2019-07-03T11:04:13,42.805,6.029,CST-1368DR,8809,12325,15495,0.031,551
2019-07-03T11:07:14,42.805,6.029,CST-1368DR,8809,12323,15493,0.032,551
2019-07-03T11:10:16,42.805,6.029,CST-1368DR,8809,12324,15494,0.031,551
2019-07-03T11:13:17,42.805,6.029,CST-1368DR,8809,12324,15494,0.031,551
2019-07-03T11:16:19,42.805,6.029,CST-1368DR,8809,12324,15494,0.031,551
2019-07-03T11:19:20,42.805,6.029,CST-1368DR,8809,12325,15494,0.031,551
2019-07-03T11:22:21,42.805,6.029,CST-1368DR,8809,12324,15494,0.031,550
2019-07-03T11:25:23,42.805,6.029,CST-1368DR,8808,12323,15495,0.031,551
2019-07-03T11:28:24,42.805,6.029,CST-1368DR,8808,12325,15497,0.031,551
2019-07-03T11:31:26,42.805,6.029,CST-1368DR,8808,12325,15497,0.031,551
2019-07-03T11:34:27,42.805,6.029,CST-1368DR,8808,12324,15495,0.031,551
2019-07-03T11:37:28,42.805,6.029,CST-1368DR,8808,12321,15491,0.032,551
2019-07-03T11:40:30,42.805,6.029,CST-1368DR,8808,12324,15495,0.031,551
2019-07-03T11:43:31,42.805,6.029,CST-1368DR,8808,12324,15495,0.031,551
2019-07-03T11:46:33,42.805,6.029,CST-1368DR,8808,12325,15496,0.031,551
2019-07-03T11:49:34,42.805,6.029,CST-1368DR,8808,12320,15491,0.032,551
2019-07-03T11:52:35,42.805,6.029,CST-1368DR,8808,12320,15491,0.032,551
2019-07-03T11:55:37,42.805,6.029,CST-1368DR,8808,12325,15497,0.031,551
2019-07-03T11:58:38,42.805,6.029,CST-1368DR,8808,12323,15494,0.031,551
2019-07-03T12:01:40,42.805,6.029,CST-1368DR,8808,12325,15496,0.031,551
2019-07-03T12:04:41,42.805,6.029,CST-1368DR,8808,12325,15496,0.031,551
2019-07-03T12:07:43,42.805,6.029,CST-1368DR,8808,12324,15496,0.031,550
2019-07-03T12:10:44,42.805,6.029,CST-1368DR,8808,12324,15495,0.031,551
2019-07-03T12:13:45,42.805,6.029,CST-1368DR,8808,12323,15494,0.031,550
2019-07-03T12:16:47,42.805,6.029,CST-1368DR,8808,12325,15496,0.031,551
2019-07-03T12:19:48,42.805,6.029,CST-1368DR,8808,12322,15493,0.032,551
2019-07-03T12:22:50,42.805,6.029,CST-1368DR,8808,12322,15493,0.032,551
2019-07-03T12:25:51,42.805,6.029,CST-1368DR,8808,12323,15494,0.031,551
2019-07-03T12:28:52,42.805,6.029,CST-1368DR,8808,12324,15496,0.031,551
2019-07-03T12:31:54,42.805,6.029,CST-1368DR,8808,12322,15493,0.032,551
2019-07-03T12:34:55,42.805,6.029,CST-1368DR,8808,12322,15493,0.032,551
2019-07-03T12:37:57,42.805,6.029,CST-1368DR,8808,12323,15494,0.031,550
2019-07-03T12:40:58,42.805,6.029,CST-1368DR,8808,12324,15495,0.031,551
2019-07-03T12:43:59,42.805,6.029,CST-1368DR,8808,12324,15495,0.031,551
2019-07-03T12:47:01,42.805,6.029,CST-1368DR,8808,12323,15495,0.031,551
2019-07-03T12:50:02,42.805,6.029,CST-1368DR,8808,12324,15495,0.031,551
2019-07-03T12:53:04,42.805,6.029,CST-1368DR,8808,12324,15495,0.031,551
2019-07-03T12:56:05,42.805,6.029,CST-1368DR,8808,12323,15495,0.031,551
2019-07-03T12:59:06,42.805,6.029,CST-1368DR,8808,12321,15491,0.032,551
2019-07-03T13:02:08,42.805,6.029,CST-1368DR,8808,12323,15495,0.031,551
2019-07-03T13:05:09,42.805,6.029,CST-1368DR,8808,12321,15491,0.032,551
2019-07-03T13:08:11,42.805,6.029,CST-1368DR,8807,12322,15495,0.031,551
2019-07-03T13:11:12,42.805,6.029,CST-1368DR,8807,12324,15497,0.031,551
2019-07-03T13:14:14,42.805,6.029,CST-1368DR,8808,12323,15495,0.031,551
2019-07-03T13:17:15,42.805,6.029,CST-1368DR,8808,12323,15494,0.031,551
2019-07-03T13:20:16,42.805,6.029,CST-1368DR,8808,12323,15495,0.031,551
2019-07-03T13:23:18,42.805,6.029,CST-1368DR,8808,12323,15495,0.031,551
2019-07-03T13:26:19,42.805,6.029,CST-1368DR,8807,12321,15494,0.031,551
2019-07-03T13:29:21,42.805,6.029,CST-1368DR,8808,12322,15493,0.032,551
2019-07-03T13:32:22,42.805,6.029,CST-1368DR,8807,12322,15494,0.031,551
2019-07-03T13:35:23,42.805,6.029,CST-1368DR,8807,12323,15496,0.031,550
2019-07-03T13:38:25,42.805,6.029,CST-1368DR,8807,12321,15493,0.032,551
2019-07-03T13:41:26,42.805,6.029,CST-1368DR,8807,12322,15495,0.031,551
2019-07-03T13:44:28,42.805,6.029,CST-1368DR,8807,12324,15496,0.031,551
2019-07-03T13:47:29,42.805,6.029,CST-1368DR,8807,12323,15496,0.031,551
2019-07-03T13:50:30,42.805,6.029,CST-1368DR,8807,12323,15496,0.031,551
2019-07-03T13:53:32,42.805,6.029,CST-1368DR,8807,12323,15495,0.031,551
2019-07-03T13:56:33,42.805,6.029,CST-1368DR,8807,12316,15487,0.033,551
2019-07-03T13:59:35,42.805,6.029,CST-1368DR,8807,12323,15495,0.031,551
2019-07-03T14:02:36,42.805,6.029,CST-1368DR,8807,12323,15496,0.031,551
2019-07-03T14:05:37,42.805,6.029,CST-1368DR,8807,12323,15496,0.031,550
2019-07-03T14:08:39,42.805,6.029,CST-1368DR,8807,12322,15495,0.031,551
2019-07-03T14:11:40,42.805,6.029,CST-1368DR,8807,12323,15496,0.031,551
2019-07-03T14:14:42,42.805,6.029,CST-1368DR,8807,12322,15494,0.031,551
2019-07-03T14:17:43,42.805,6.029,CST-1368DR,8807,12322,15495,0.031,551
2019-07-03T14:20:45,42.805,6.029,CST-1368DR,8807,12322,15495,0.031,551
2019-07-03T14:23:46,42.805,6.029,CST-1368DR,8807,12322,15494,0.031,550
2019-07-03T14:26:47,42.805,6.029,CST-1368DR,8807,12323,15495,0.031,551
2019-07-03T14:29:49,42.805,6.029,CST-1368DR,8807,12322,15495,0.031,551
2019-07-03T14:32:50,42.805,6.029,CST-1368DR,8807,12323,15495,0.031,550
2019-07-03T14:35:52,42.805,6.029,CST-1368DR,8807,12321,15493,0.032,551
2019-07-03T14:38:53,42.805,6.029,CST-1368DR,8807,12313,15483,0.034,551
2019-07-03T14:41:54,42.805,6.029,CST-1368DR,8807,12319,15490,0.032,551
2019-07-03T14:44:56,42.805,6.029,CST-1368DR,8807,12320,15492,0.032,551
2019-07-03T14:47:57,42.805,6.029,CST-1368DR,8807,12321,15493,0.032,551
2019-07-03T14:50:59,42.805,6.029,CST-1368DR,8807,12321,15493,0.032,551
2019-07-03T14:54:00,42.805,6.029,CST-1368DR,8807,12321,15493,0.032,551
2019-07-03T14:57:01,42.805,6.029,CST-1368DR,8807,12321,15494,0.031,551
2019-07-03T15:00:03,42.805,6.029,CST-1368DR,8807,12322,15495,0.031,551
2019-07-03T15:03:04,42.805,6.029,CST-1368DR,8807,12321,15493,0.032,550
2019-07-03T15:06:06,42.805,6.029,CST-1368DR,8806,12323,15497,0.031,551
2019-07-03T15:09:07,42.805,6.029,CST-1368DR,8807,12321,15493,0.032,551
2019-07-03T15:12:08,42.805,6.029,CST-1368DR,8807,12321,15493,0.032,551
2019-07-03T15:15:10,42.805,6.029,CST-1368DR,8807,12321,15493,0.032,550
2019-07-03T15:18:11,42.805,6.029,CST-1368DR,8807,12322,15494,0.031,551
2019-07-03T15:21:13,42.805,6.029,CST-1368DR,8806,12321,15495,0.031,551
2019-07-03T15:24:14,42.805,6.029,CST-1368DR,8806,12320,15493,0.032,551
2019-07-03T15:27:16,42.805,6.029,CST-1368DR,8806,12322,15496,0.031,551
2019-07-03T15:30:17,42.805,6.029,CST-1368DR,8806,12318,15491,0.032,550
2019-07-03T15:33:18,42.805,6.029,CST-1368DR,8806,12320,15494,0.031,551
2019-07-03T15:36:20,42.805,6.029,CST-1368DR,8806,12321,15495,0.031,551
2019-07-03T15:39:21,42.805,6.029,CST-1368DR,8806,12321,15494,0.031,551
2019-07-03T15:42:23,42.805,6.029,CST-1368DR,8806,12320,15493,0.032,551
2019-07-03T15:45:24,42.805,6.029,CST-1368DR,8806,12320,15493,0.032,551
2019-07-03T15:48:25,42.805,6.029,CST-1368DR,8806,12321,15495,0.031,551
2019-07-03T15:51:27,42.805,6.029,CST-1368DR,8806,12319,15493,0.032,551
2019-07-03T15:54:28,42.805,6.029,CST-1368DR,8806,12321,15495,0.031,551
2019-07-03T15:57:30,42.805,6.029,CST-1368DR,8806,12320,15494,0.031,550
2019-07-03T16:00:31,42.805,6.029,CST-1368DR,8806,12320,15494,0.031,551
2019-07-03T16:03:32,42.805,6.029,CST-1368DR,8806,12321,15495,0.031,551
2019-07-03T16:06:34,42.805,6.029,CST-1368DR,8806,12321,15495,0.031,551
2019-07-03T16:09:35,42.805,6.029,CST-1368DR,8806,12309,15480,0.035,551
2019-07-03T16:12:37,42.805,6.029,CST-1368DR,8806,12319,15492,0.032,551
2019-07-03T16:15:38,42.805,6.029,CST-1368DR,8806,12320,15493,0.032,551
2019-07-03T16:18:40,42.805,6.029,CST-1368DR,8806,12320,15493,0.032,551
2019-07-03T16:21:41,42.805,6.029,CST-1368DR,8806,12320,15493,0.032,550
2019-07-03T16:24:42,42.805,6.029,CST-1368DR,8806,12320,15493,0.032,551
2019-07-03T16:27:44,42.805,6.029,CST-1368DR,8806,12319,15492,0.032,551
2019-07-03T16:30:45,42.805,6.029,CST-1368DR,8806,12320,15493,0.032,551
2019-07-03T16:33:47,42.805,6.029,CST-1368DR,8806,12315,15488,0.033,551
2019-07-03T16:36:48,42.805,6.029,CST-1368DR,8806,12320,15494,0.031,551